Weather History for Burlington, VT

Change the Weather History Date:

Thursday, June 13, 2013

  Actual Average Record
Temperature  
Mean Temperature 61 °F 65 °F  
Max Temperature 71 °F 76 °F 94 °F (1949)
Min Temperature 51 °F 55 °F 40 °F (1923)
Degree Days  
Heating Degree Days 4 3  
Month to date heating degree days 47 49  
Since 1 June heating degree days 47 49  
Since 1 July heating degree days 6685 7410  
Cooling Degree Days 0 3  
Month to date cooling degree days 26 27  
Year to date cooling degree days 73 46  
Since 1 June cooling degree days 26 27  
Growing Degree Days 11 (Base 50)    
Moisture  
Dew Point 53 °F    
Average Humidity 74    
Maximum Humidity 96    
Minimum Humidity 51    
Precipitation  
Precipitation 0.00 in 0.13 in 1.12 in (1969)
Month to date precipitation 4.62 1.60  
Year to date precipitation 19.89 13.91  
Snow  
Snow 0.00 in 0.00 in 0.00 in (2002)
Month to date snowfall 0.0 0.0  
Since 1 June snowfall 0.0 0.0  
Since 1 July snowfall 82.9 81.2  
Snow Depth 0.00 in    
Sea Level Pressure  
Sea Level Pressure 29.75 in    
Wind  
Wind Speed 4 mph (South)    
Max Wind Speed 12 mph    
Max Gust Speed 16 mph    
Visibility 10 miles    
Events      
T = Trace of Precipitation, MM = Missing Value Source: NWS Daily Summary

Daily Weather History Graph

Daily Weather History Graph

Search for Another Location

Airport:

Trip Planner

Search our weather history database for the weather conditions in past years. The results will help you decide how hot, cold, wet, or windy it might be!

Date:

Astronomy

Jun. 13, 2013 Rise Set
Actual Time 5:07 AM EDT 8:38 PM EDT
Civil Twilight 4:30 AM EDT 9:15 PM EDT
Nautical Twilight 3:42 AM EDT 10:03 PM EDT
Astronomical Twilight 2:40 AM EDT 11:06 PM EDT
Moon 9:50 AM EDT (6/13) 11:32 PM EDT (6/13)
Length of Visible Light 16h 44m
Length of Day
15h 30m
Waxing Crescent, 21% of the Moon is Illuminated
Jun 13
Waxing Crescent
Jun 16
First Quarter
Jun 23
Full
Jun 30
Last Quarter
Jul 8
New

Hourly Weather History & Observations

Time (EDT) Temp. Dew Point Humidity Pressure Visibility Wind Dir Wind Speed Gust Speed Precip Events Conditions
12:54 AM 57.0 °F 55.0 °F 93% 29.82 in 10.0 mi South 3.5 mph - N/A   Overcast
1:54 AM 55.0 °F 53.1 °F 93% 29.81 in 10.0 mi SSE 3.5 mph - N/A   Scattered Clouds
2:54 AM 53.1 °F 52.0 °F 96% 29.81 in 10.0 mi Calm Calm - N/A   Mostly Cloudy
3:54 AM 52.0 °F 50.0 °F 93% 29.80 in 10.0 mi Calm Calm - N/A   Partly Cloudy
4:54 AM 51.1 °F 50.0 °F 96% 29.80 in 10.0 mi Calm Calm - N/A   Mostly Cloudy
5:54 AM 53.1 °F 51.1 °F 93% 29.79 in 10.0 mi East 4.6 mph - N/A   Partly Cloudy
6:54 AM 55.9 °F 52.0 °F 87% 29.79 in 10.0 mi Calm Calm - N/A   Partly Cloudy
7:54 AM 60.1 °F 53.1 °F 78% 29.78 in 10.0 mi SSE 3.5 mph - N/A   Clear
8:54 AM 64.0 °F 54.0 °F 70% 29.77 in 10.0 mi Calm Calm - N/A   Partly Cloudy
9:54 AM 66.9 °F 54.0 °F 63% 29.75 in 10.0 mi Calm Calm - N/A   Scattered Clouds
10:54 AM 68.0 °F 52.0 °F 56% 29.75 in 10.0 mi East 5.8 mph - N/A   Mostly Cloudy
11:54 AM 69.1 °F 52.0 °F 54% 29.74 in 10.0 mi SE 8.1 mph - N/A   Mostly Cloudy
12:54 PM 66.9 °F 55.0 °F 66% 29.73 in 10.0 mi SSW 4.6 mph - N/A   Overcast
1:54 PM 69.1 °F 54.0 °F 58% 29.70 in 10.0 mi Calm Calm - N/A   Overcast
2:54 PM 70.0 °F 50.0 °F 49% 29.69 in 10.0 mi SSE 4.6 mph - N/A   Overcast
3:54 PM 68.0 °F 55.9 °F 65% 29.69 in 10.0 mi WSW 6.9 mph - N/A   Overcast
4:54 PM 68.0 °F 55.9 °F 65% 29.70 in 10.0 mi SW 6.9 mph - N/A   Partly Cloudy
5:54 PM 64.9 °F 55.0 °F 70% 29.72 in 10.0 mi SSW 8.1 mph - N/A   Mostly Cloudy
6:54 PM 64.0 °F 54.0 °F 70% 29.72 in 10.0 mi SSW 6.9 mph - N/A   Mostly Cloudy
7:54 PM 61.0 °F 52.0 °F 72% 29.74 in 10.0 mi South 10.4 mph - N/A   Mostly Cloudy
8:54 PM 60.1 °F 53.1 °F 78% 29.75 in 10.0 mi South 5.8 mph - N/A   Mostly Cloudy
9:54 PM 59.0 °F 53.1 °F 81% 29.75 in 10.0 mi Calm Calm - N/A   Overcast
10:54 PM 59.0 °F 53.1 °F 81% 29.74 in 10.0 mi Calm Calm - N/A   Overcast
11:54 PM 57.9 °F 54.0 °F 87% 29.74 in 10.0 mi Calm Calm - N/A   Overcast